Regional Weather Roundup
Issued by NWS

Home | Current Version | Previous Version | Text Only | Print | Product List | Glossary Off
Versions: 1 2 3 4 5 6 7 8 9 10 11 12 13 14 15 16 17 18 19 20 21 22 23 24 25 26 27 28 29 30 31 32 33 34 35 36 37 38 39 40 41 42 43 44 45 46 47 48 49 50

000
ASUS45 KPSR 270810
RWRAZ

ARIZONA HOURLY REGIONAL WEATHER ROUNDUP
NATIONAL WEATHER SERVICE PHOENIX AZ
100 AM MST TUE JUN 27 2017

NOTE: FAIR INDICATES FEW OR NO CLOUDS BELOW 12,000 FEET WITH NO
SIGNIFICANT WEATHER AND/OR OBSTRUCTIONS TO VISIBILITY.

AZZ001>003-036-270900-
NORTHWEST ARIZONA

CITY           SKY/WX    TMP DP  RH WIND       PRES   REMARKS
BULLHEAD CITY  CLEAR    100  27   7 S9G18     29.72S
KINGMAN        CLEAR     78  22  12 S13       29.96S
$$

AZZ004>008-015-016-018-270900-
NORTH CENTRAL ARIZONA

CITY           SKY/WX    TMP DP  RH WIND       PRES   REMARKS
GRAND CANYON   CLEAR     50  23  34 CALM      30.21F
PRESCOTT       CLEAR     77  25  14 SW14      30.10F
FLAGSTAFF      CLEAR     55  25  31 CALM      30.26F
PAYSON         CLEAR     72  36  26 CALM      30.15S
PAGE           CLEAR     82  22  11 S5        29.96F
$$

AZZ009>014-017-270900-
NORTHEAST ARIZONA

CITY           SKY/WX    TMP DP  RH WIND       PRES   REMARKS
WINSLOW        CLEAR     66  28  24 VRB3      30.09F
SAINT JOHNS    CLEAR     75  41  29 SW3       30.16S
WINDOW ROCK    PTCLDY    68  37  32 S6        30.22S
SHOW LOW       CLEAR     64  41  42 S10       30.24S
$$

AZZ540-542>544-546-548-270900-
GREATER PHOENIX AREA

CITY           SKY/WX    TMP DP  RH WIND       PRES   REMARKS
PHOENIX        CLEAR     96  38  13 SW5       29.76F
BUCKEYE          N/A     90  32  12 CALM      29.78S
LUKE AFB       CLEAR     96  35  11 S7        29.76S
DEER VALLEY    CLEAR     89  33  13 CALM      29.79S
SCOTTSDALE     CLEAR     91  37  15 CALM      29.81S
MESA-GATEWAY   PTCLDY    90  43  19 CALM      29.80F
$$

AZZ539-553-270900-
SOUTHWEST MARICOPA COUNTY AND PINAL COUNTY

CITY           SKY/WX    TMP DP  RH WIND       PRES   REMARKS
CASA GRANDE    CLEAR     89  42  19 SW3       29.83S
GILA BEND      FAIR      95  27   9 SW14      29.77S
$$

AZZ503-504-507>509-270900-
SOUTHEAST ARIZONA

CITY           SKY/WX    TMP DP  RH WIND       PRES   REMARKS
TUCSON         CLEAR     87  55  33 SE8       29.97S
DAVIS-MONTHAN  CLEAR     84  54  35 S6        29.96S
NOGALES        PTCLDY    70  61  73 NE5       30.07F
SIERRA VISTA   CLEAR     76  45  33 NW6       30.13F
DOUGLAS        PTCLDY    76  53  44 SE8       30.10R
SAFFORD        PTCLDY    84  48  28 E8        29.98F
$$

AZZ532-270900-
SOUTHWEST ARIZONA

CITY           SKY/WX    TMP DP  RH WIND       PRES   REMARKS
YUMA           CLEAR     90  31  12 W7        29.76F
$$

CAZ041-043-047-048-061-525>527-560>570-270900-
SOUTHERN CALIFORNIA

CITY           SKY/WX    TMP DP  RH WIND       PRES   REMARKS
DOWNTOWN L.A.  CLEAR     70  56  61 CALM      29.87F
L.A. AIRPORT   CLEAR     68  58  70 SE6       29.87F
SAN DIEGO      CLEAR     69  65  86 CALM      29.90F
BURBANK        CLEAR     76  54  46 CALM      29.88F
ONTARIO        CLEAR     75  50  41 CALM      29.90F
RIVERSIDE      CLEAR     75  49  39 CALM      29.90F
PALM SPRINGS   CLEAR     91  28  10 CALM      29.76S
EL CENTRO NAS  CLEAR     85  24  11 NW9       29.76F
IMPERIAL       CLEAR     89  34  14 W10       29.74F
BLYTHE         CLEAR     95  31  10 W13       29.75S
NEEDLES        CLEAR     99  23   6 W22       29.73F
$$

NVZ020-UTZ003-270900-
SOUTHERN NEVADA-UTAH

CITY           SKY/WX    TMP DP  RH WIND       PRES   REMARKS
LAS VEGAS      CLEAR     91  13   5 SW21G30   29.77F
SALT LAKE CITY MOCLDY    84  32  15 S17G29    29.81S
$$

NMZ009-TXZ055-270900-
NEW MEXICO-WEST TEXAS

CITY           SKY/WX    TMP DP  RH WIND       PRES   REMARKS
ALBUQUERQUE    MOCLDY    68  48  48 CALM      30.21F
EL PASO        MOCLDY    74  56  53 VRB3      30.12F
$$


........................KEY........................
SKY/WX - SKY CONDITION/WEATHER
TMP    - TEMPERATURE IN FAHRENHEIT
DP     - DEW POINT IN FAHRENHEIT
RH     - RELATIVE HUMIDITY IN PERCENT
WIND   - DIRECTION AND SPEED IN MILES PER HOUR (MPH)
VRB    - VARIABLE WIND DIRECTION
PRES   - MEAN SEA LEVEL PRESSURE IN INCHES OF MERCURY
         F - FALLING PRESSURE   R - RISING PRESSURE
         S - STEADY PRESSURE
VSB    - VISIBILITY IN MILES
HX     - HEAT INDEX IN FAHRENHEIT
WCI    - WIND CHILL INDEX IN FAHRENHEIT
TC     - TEMPERATURE IN CELSIUS WHICH IS ALSO KNOWN AS
         TEMPERATURE IN CENTIGRADE
AFB    - AIR FORCE BASE
         LUKE AFB IS LUKE AIR FORCE BASE
         DAVIS-MONTHAN IS DAVIS-MONTHAN AIR FORCE BASE
NAS    - NAVAL AIR STATION
         EL CENTRO NAS IS EL CENTRO NAVAL AIR STATION
N/A    - NOT AVAILABLE





USA.gov is the U.S. government's official web portal to all federal, state and local government web resources and services.